User: anonymous   Login
Location: Christchurch
(43.5330°S, 172.6330°E)
Time: 01:32:33
(UTC+12:00)
Language:

Intelsat 806 - Orbit

View from above orbital plane
View from above orbital plane
View from above satellite
View from above satellite

Ground track
Ground track

The orbit data is extracted from the following two-line orbital elements,

1 25239U 98014A   19167.78995576 -.00000122 +00000-0 +00000-0 0  9999
2 25239 000.7186 101.3147 0005918 344.5382 030.7220 00.99077360021631
Epoch (UTC): 16 June 2019 18:57:32
Eccentricity: 0.0005918
inclination: 0.7186°
perigee height: 36099 km
apogee height: 36149 km
right ascension of ascending node: 101.3147°
argument of perigee: 344.5382°
revolutions per day: 0.99077360
mean anomaly at epoch: 30.7220°
orbit number at epoch: 2163

The dashed part of the orbit path shows where the satellite is in the earth's shadow,  

DLR